This is the latest recevied weather packets stored in our database for station/object KO4ZGL-13. If no packets are shown the sender has not sent any weather packets the latest 10 day(s).
| Time | Temp. | Humidity | Pressure | Rain* | Wind** | Luminosity | Snow |
|---|---|---|---|---|---|---|---|
| 1787504203 | 33.33° C | 78% | 1014.7 hPa | 0 mm | - | 774 W/m² | - |
| 1787503898 | 32.22° C | 79% | 1015 hPa | 0 mm | - | 722 W/m² | - |
| 1787503593 | 32.22° C | 82% | 1015.1 hPa | 0 mm | - | 747 W/m² | - |
| 1787503290 | 32.78° C | 78% | 1015 hPa | 0 mm | - | 156 W/m² | - |
| 1787502990 | 34.44° C | 78% | 1015 hPa | 0 mm | - | 171 W/m² | - |
| 1787502685 | 34.44° C | 74% | 1015 hPa | 0 mm | - | 789 W/m² | - |
| 1787502380 | 32.78° C | 78% | 1014.9 hPa | 0 mm | - | 752 W/m² | - |
| 1787502075 | 32.78° C | 79% | 1014.9 hPa | 0 mm | - | 697 W/m² | - |
| 1787501771 | 33.33° C | 79% | 1014.9 hPa | 0 mm | - | 706 W/m² | - |
| 1787501467 | 33.89° C | 76% | 1015.2 hPa | 0 mm | - | 707 W/m² | - |
| 1787501163 | 33.33° C | 78% | 1015.3 hPa | 0 mm | - | 695 W/m² | - |
| 1787500859 | 33.33° C | 76% | 1015.1 hPa | 0 mm | - | 708 W/m² | - |
| 1787500554 | 33.33° C | 77% | 1015.4 hPa | 0 mm | - | 701 W/m² | - |
| 1787500249 | 32.78° C | 78% | 1015.4 hPa | 0 mm | - | 698 W/m² | - |
| 1787499948 | 32.22° C | 78% | 1015.6 hPa | 0 mm | - | 711 W/m² | - |
| 1787499643 | 32.22° C | 80% | 1015.6 hPa | 0 mm | - | 718 W/m² | - |
| 1787499338 | 31.67° C | 81% | 1015.5 hPa | 0 mm | - | 724 W/m² | - |
| 1787499034 | 31.67° C | 81% | 1015.3 hPa | 0 mm | - | 722 W/m² | - |
| 1787498732 | 31.67° C | 82% | 1015.4 hPa | 0 mm | - | 750 W/m² | - |
| 1787498428 | 32.22° C | 82% | 1015.6 hPa | 0 mm | - | 764 W/m² | - |
| 1787498124 | 31.11° C | 82% | 1015.5 hPa | 0 mm | - | 718 W/m² | - |
| 1787497819 | 31.11° C | 84% | 1015.7 hPa | 0 mm | - | 620 W/m² | - |
| 1787497515 | 30.56° C | 83% | 1015.7 hPa | 0 mm | - | 706 W/m² | - |
| 1787497214 | 30.56° C | 84% | 1015.6 hPa | 0 mm | - | 685 W/m² | - |
| 1787496908 | 31.11° C | 84% | 1015.6 hPa | 0 mm | - | 661 W/m² | - |
* Rain latest hour (hover to see other rain measurements)
** Current wind speed in m/s (hover to see current wind gust speed)